START_TIME,STEP,MOV.,M34,t_acc.,L5,t_acc.,L18,t_acc.,L14,t_acc.
1979-03-02 09:00:14.170 ,6,1,0.,12.0,18.,12.0,0.,12.0,0.,12.0
1979-03-02 09:00:26.170 ,6,1,0.,12.0,7.,12.0,0.,12.0,0.,12.0
1979-03-02 09:00:38.170 ,5,1,0.,12.0,4.,12.0,0.,12.0,0.,12.0
1979-03-02 09:00:50.170 ,5,1,0.,12.0,3.,12.0,0.,12.0,0.,12.0
1979-03-02 09:01:02.170 ,4,1,0.,12.0,1.,12.0,0.,12.0,0.,12.0
1979-03-02 09:01:14.170 ,4,1,0.,12.0,8.,12.0,0.,12.0,0.,12.0
1979-03-02 09:01:26.170 ,3,1,0.,12.0,2.,12.0,0.,12.0,0.,12.0
1979-03-02 09:01:38.170 ,3,1,0.,12.0,3.,12.0,0.,12.0,0.,12.0
1979-03-02 09:01:50.170 ,2,1,0.,12.0,4.,12.0,0.,12.0,0.,12.0
1979-03-02 09:02:02.170 ,2,1,0.,12.0,2.,12.0,0.,12.0,0.,12.0
1979-03-02 09:02:14.170 ,1,1,0.,12.0,1.,12.0,0.,12.0,0.,12.0
1979-03-02 09:02:26.170 ,1,1,0.,12.0,2.,12.0,0.,12.0,0.,12.0
1979-03-02 09:02:38.170 ,0,1,0.,12.0,1.,12.0,0.,12.0,0.,12.0
1979-03-02 09:02:50.170 ,0,1,1.,12.0,4.,12.0,0.,12.0,0.,12.0
1979-03-02 09:03:02.170 ,0,1,0.,12.0,2.,12.0,0.,12.0,0.,12.0
1979-03-02 09:03:14.170 ,0,1,0.,12.0,2.,12.0,0.,12.0,0.,12.0
1979-03-02 09:03:26.170 ,1,1,0.,12.0,1.,12.0,0.,12.0,0.,12.0
1979-03-02 09:03:38.170 ,1,1,0.,12.0,0.,12.0,0.,12.0,0.,12.0
1979-03-02 09:03:50.170 ,2,1,0.,12.0,4.,12.0,0.,12.0,0.,12.0
1979-03-02 09:04:02.170 ,2,1,0.,12.0,1.,12.0,0.,12.0,0.,12.0
1979-03-02 09:04:14.170 ,3,1,0.,12.0,0.,12.0,0.,12.0,0.,12.0
1979-03-02 09:04:26.170 ,3,1,0.,12.0,2.,12.0,0.,12.0,0.,12.0
1979-03-02 09:04:38.170 ,4,1,0.,12.0,6.,12.0,0.,12.0,0.,12.0
1979-03-02 09:04:50.170 ,4,1,0.,12.0,3.,12.0,0.,12.0,0.,12.0
1979-03-02 09:05:02.170 ,5,1,0.,12.0,4.,12.0,0.,12.0,0.,12.0
1979-03-02 09:05:14.170 ,5,1,0.,12.0,3.,12.0,0.,12.0,0.,12.0
1979-03-02 09:05:26.170 ,6,1,0.,12.0,1.,12.0,0.,12.0,0.,12.0
1979-03-02 09:05:38.170 ,6,1,0.,12.0,1.,12.0,0.,12.0,0.,12.0
1979-03-02 09:05:50.170 ,7,1,0.,12.0,4.,12.0,0.,12.0,0.,12.0
1979-03-02 09:06:02.170 ,7,1,0.,12.0,18.,12.0,0.,12.0,0.,12.0
1979-03-02 09:06:14.170 ,7,1,0.,12.0,18.,12.0,0.,12.0,0.,12.0
1979-03-02 09:06:26.170 ,7,1,0.,12.0,13.,12.0,0.,12.0,0.,12.0
1979-03-02 09:06:38.170 ,6,1,0.,12.0,17.,12.0,0.,12.0,0.,12.0
1979-03-02 09:06:50.170 ,6,1,0.,12.0,7.,12.0,0.,12.0,0.,12.0
1979-03-02 09:07:02.170 ,5,1,0.,12.0,1.,12.0,0.,12.0,0.,12.0
1979-03-02 09:07:14.170 ,5,1,0.,12.0,2.,12.0,0.,12.0,0.,12.0
1979-03-02 09:07:26.170 ,4,1,0.,12.0,0.,12.0,0.,12.0,0.,12.0
1979-03-02 09:07:38.170 ,4,1,0.,12.0,3.,12.0,0.,12.0,0.,12.0
1979-03-02 09:07:50.170 ,3,1,0.,12.0,4.,12.0,0.,12.0,0.,12.0
1979-03-02 09:08:02.170 ,3,1,0.,12.0,9.,12.0,0.,12.0,0.,12.0
1979-03-02 09:08:14.170 ,2,1,0.,12.0,2.,12.0,0.,12.0,0.,12.0
1979-03-02 09:08:26.170 ,2,1,0.,12.0,2.,12.0,0.,12.0,0.,12.0
1979-03-02 09:08:38.170 ,1,1,0.,12.0,0.,12.0,0.,12.0,0.,12.0
1979-03-02 09:08:50.170 ,1,1,0.,12.0,5.,12.0,0.,12.0,0.,12.0
1979-03-02 09:09:02.170 ,0,1,0.,12.0,1.,12.0,0.,12.0,0.,12.0
1979-03-02 09:09:14.170 ,0,1,0.,12.0,1.,12.0,0.,12.0,0.,12.0
1979-03-02 09:09:26.170 ,0,1,0.,12.0,2.,12.0,0.,12.0,0.,12.0
1979-03-02 09:09:38.170 ,0,1,0.,12.0,6.,12.0,0.,12.0,0.,12.0
1979-03-02 09:09:50.170 ,1,1,0.,12.0,6.,12.0,0.,12.0,0.,12.0
1979-03-02 09:10:02.170 ,1,1,0.,12.0,1.,12.0,0.,12.0,0.,12.0
1979-03-02 09:10:14.170 ,2,1,0.,12.0,0.,12.0,0.,12.0,0.,12.0
1979-03-02 09:10:26.170 ,2,1,0.,12.0,1.,12.0,0.,12.0,0.,12.0
1979-03-02 09:10:38.170 ,3,1,0.,12.0,1.,12.0,0.,12.0,0.,12.0
1979-03-02 09:10:50.170 ,3,1,1.,12.0,4.,12.0,0.,12.0,0.,12.0
1979-03-02 09:11:02.170 ,4,1,1.,12.0,2.,12.0,0.,12.0,0.,12.0
1979-03-02 09:11:14.170 ,4,1,1.,12.0,3.,12.0,0.,12.0,0.,12.0
1979-03-02 09:11:26.170 ,5,1,0.,12.0,4.,12.0,0.,12.0,0.,12.0
1979-03-02 09:11:38.170 ,5,1,0.,12.0,2.,12.0,0.,12.0,0.,12.0
1979-03-02 09:11:50.170 ,6,1,0.,12.0,1.,12.0,0.,12.0,0.,12.0
1979-03-02 09:12:02.170 ,6,1,0.,12.0,1.,12.0,0.,12.0,0.,12.0
1979-03-02 09:12:14.170 ,7,1,0.,12.0,3.,12.0,0.,12.0,0.,12.0
1979-03-02 09:12:26.170 ,7,1,0.,12.0,10.,12.0,0.,12.0,0.,12.0
1979-03-02 09:12:38.170 ,7,1,0.,12.0,18.,12.0,0.,12.0,0.,12.0
1979-03-02 09:12:50.170 ,7,1,0.,12.0,15.,12.0,0.,12.0,0.,12.0
1979-03-02 09:13:02.170 ,6,1,0.,12.0,15.,12.0,0.,12.0,0.,12.0
1979-03-02 09:13:14.170 ,6,1,0.,12.0,8.,12.0,0.,12.0,0.,12.0
1979-03-02 09:13:26.170 ,5,1,0.,12.0,5.,12.0,0.,12.0,0.,12.0
1979-03-02 09:13:38.170 ,5,1,0.,12.0,2.,12.0,0.,12.0,0.,12.0
1979-03-02 09:13:50.170 ,4,1,1.,12.0,2.,12.0,0.,12.0,0.,12.0
1979-03-02 09:14:02.170 ,4,1,0.,12.0,3.,12.0,0.,12.0,0.,12.0
1979-03-02 09:14:14.170 ,3,1,0.,12.0,7.,12.0,0.,12.0,0.,12.0
1979-03-02 09:14:26.170 ,3,1,0.,12.0,0.,12.0,0.,12.0,0.,12.0
1979-03-02 09:14:38.170 ,2,1,0.,12.0,2.,12.0,0.,12.0,0.,12.0
1979-03-02 09:14:50.170 ,2,1,0.,12.0,1.,12.0,0.,12.0,0.,12.0
1979-03-02 09:15:02.170 ,1,1,0.,12.0,0.,12.0,0.,12.0,0.,12.0
1979-03-02 09:15:14.170 ,1,1,0.,12.0,0.,12.0,0.,12.0,0.,12.0
1979-03-02 09:15:26.170 ,0,1,0.,12.0,0.,12.0,0.,12.0,0.,12.0
1979-03-02 09:15:38.170 ,0,1,0.,12.0,0.,12.0,0.,12.0,0.,12.0
1979-03-02 09:15:50.170 ,0,1,0.,12.0,1.,12.0,0.,12.0,0.,12.0
1979-03-02 09:16:02.170 ,0,1,0.,12.0,1.,12.0,0.,12.0,0.,12.0
1979-03-02 09:16:14.170 ,1,1,0.,12.0,2.,12.0,0.,12.0,0.,12.0
1979-03-02 09:16:26.170 ,1,1,0.,12.0,2.,12.0,0.,12.0,0.,12.0
1979-03-02 09:16:38.170 ,2,1,0.,12.0,0.,12.0,0.,12.0,0.,12.0
1979-03-02 09:16:50.170 ,2,1,0.,12.0,0.,12.0,0.,12.0,0.,12.0
1979-03-02 09:17:02.170 ,3,1,0.,12.0,1.,12.0,0.,12.0,0.,12.0
1979-03-02 09:17:14.170 ,3,1,0.,12.0,2.,12.0,0.,12.0,0.,12.0
1979-03-02 09:17:26.170 ,4,1,0.,12.0,3.,12.0,0.,12.0,0.,12.0
1979-03-02 09:17:38.170 ,4,1,0.,12.0,3.,12.0,0.,12.0,0.,12.0
1979-03-02 09:17:50.170 ,5,1,0.,12.0,4.,12.0,0.,12.0,0.,12.0
1979-03-02 09:18:02.170 ,5,1,0.,12.0,6.,12.0,0.,12.0,0.,12.0
1979-03-02 09:18:14.170 ,6,1,0.,12.0,4.,12.0,0.,12.0,0.,12.0
1979-03-02 09:18:26.170 ,6,1,0.,12.0,3.,12.0,0.,12.0,0.,12.0
1979-03-02 09:18:38.170 ,7,1,0.,12.0,4.,12.0,0.,12.0,0.,12.0
1979-03-02 09:18:50.170 ,7,1,0.,12.0,14.,12.0,0.,12.0,0.,12.0
1979-03-02 09:19:02.170 ,7,1,0.,12.0,15.,12.0,0.,12.0,0.,12.0
1979-03-02 09:19:14.170 ,7,1,0.,12.0,22.,12.0,0.,12.0,0.,12.0
1979-03-02 09:19:26.170 ,6,1,0.,12.0,17.,12.0,0.,12.0,0.,12.0
1979-03-02 09:19:38.170 ,6,1,0.,12.0,5.,12.0,0.,12.0,0.,12.0
1979-03-02 09:19:50.170 ,5,1,0.,12.0,1.,12.0,0.,12.0,0.,12.0
1979-03-02 09:20:02.170 ,5,1,0.,12.0,3.,12.0,0.,12.0,0.,12.0
1979-03-02 09:20:14.170 ,4,1,0.,12.0,3.,12.0,0.,12.0,1.,12.0
1979-03-02 09:20:26.170 ,4,1,0.,12.0,5.,12.0,0.,12.0,0.,12.0
1979-03-02 09:20:38.170 ,3,1,0.,12.0,3.,12.0,0.,12.0,0.,12.0
1979-03-02 09:20:50.170 ,3,1,0.,12.0,1.,12.0,0.,12.0,0.,12.0
1979-03-02 09:21:02.170 ,2,1,1.,12.0,0.,12.0,0.,12.0,0.,12.0
1979-03-02 09:21:14.170 ,2,1,0.,12.0,4.,12.0,0.,12.0,0.,12.0
1979-03-02 09:21:26.170 ,1,1,0.,12.0,0.,12.0,0.,12.0,0.,12.0
1979-03-02 09:21:38.170 ,1,1,0.,12.0,0.,12.0,0.,12.0,0.,12.0
1979-03-02 09:21:50.170 ,0,1,0.,12.0,1.,12.0,0.,12.0,0.,12.0
1979-03-02 09:22:02.170 ,0,1,0.,12.0,1.,12.0,0.,12.0,0.,12.0
1979-03-02 09:22:14.170 ,0,1,1.,12.0,0.,12.0,0.,12.0,0.,12.0
1979-03-02 09:22:26.170 ,0,1,0.,12.0,5.,12.0,0.,12.0,0.,12.0
1979-03-02 09:22:38.170 ,1,1,0.,12.0,1.,12.0,0.,12.0,0.,12.0
1979-03-02 09:22:50.170 ,1,1,0.,12.0,0.,12.0,0.,12.0,0.,12.0
1979-03-02 09:23:02.170 ,2,1,0.,12.0,0.,12.0,0.,12.0,0.,12.0
1979-03-02 09:23:14.170 ,2,1,0.,12.0,0.,12.0,0.,12.0,0.,12.0
1979-03-02 09:23:26.170 ,3,1,0.,12.0,0.,12.0,0.,12.0,0.,12.0
1979-03-02 09:23:38.170 ,3,1,0.,12.0,0.,12.0,0.,12.0,0.,12.0
1979-03-02 09:23:50.170 ,4,1,0.,12.0,3.,12.0,0.,12.0,0.,12.0
1979-03-02 09:24:02.170 ,4,1,0.,12.0,1.,12.0,0.,12.0,0.,12.0
1979-03-02 09:24:14.170 ,5,1,0.,12.0,10.,12.0,0.,12.0,0.,12.0
1979-03-02 09:24:26.170 ,5,1,0.,12.0,3.,12.0,0.,12.0,0.,12.0
1979-03-02 09:24:38.170 ,6,1,0.,12.0,2.,12.0,0.,12.0,0.,12.0
1979-03-02 09:24:50.170 ,6,1,1.,12.0,3.,12.0,0.,12.0,0.,12.0
1979-03-02 09:25:02.170 ,7,1,0.,12.0,0.,12.0,0.,12.0,0.,12.0
1979-03-02 09:25:14.170 ,7,1,0.,12.0,8.,12.0,0.,12.0,0.,12.0
1979-03-02 09:25:26.170 ,7,1,0.,12.0,15.,12.0,0.,12.0,0.,12.0
1979-03-02 09:25:38.170 ,7,1,0.,12.0,22.,12.0,0.,12.0,0.,12.0
1979-03-02 09:25:50.170 ,6,1,0.,12.0,20.,12.0,0.,12.0,0.,12.0
1979-03-02 09:26:02.170 ,6,1,0.,12.0,8.,12.0,0.,12.0,0.,12.0
1979-03-02 09:26:14.170 ,5,1,0.,12.0,1.,12.0,0.,12.0,0.,12.0
1979-03-02 09:26:26.170 ,5,1,0.,12.0,4.,12.0,0.,12.0,0.,12.0
1979-03-02 09:26:38.170 ,4,1,1.,12.0,3.,12.0,0.,12.0,0.,12.0
1979-03-02 09:26:50.170 ,4,1,0.,12.0,3.,12.0,0.,12.0,0.,12.0
1979-03-02 09:27:02.170 ,3,1,0.,12.0,5.,12.0,0.,12.0,0.,12.0
1979-03-02 09:27:14.170 ,3,1,0.,12.0,1.,12.0,0.,12.0,0.,12.0
1979-03-02 09:27:26.170 ,2,1,0.,12.0,1.,12.0,0.,12.0,0.,12.0
1979-03-02 09:27:38.170 ,2,1,0.,12.0,0.,12.0,0.,12.0,0.,12.0
1979-03-02 09:27:50.170 ,1,1,0.,12.0,0.,12.0,0.,12.0,0.,12.0
1979-03-02 09:28:02.170 ,1,1,0.,12.0,1.,12.0,0.,12.0,0.,12.0
1979-03-02 09:28:14.170 ,0,1,0.,12.0,1.,12.0,0.,12.0,0.,12.0
1979-03-02 09:28:26.170 ,0,1,0.,12.0,0.,12.0,0.,12.0,0.,12.0
1979-03-02 09:28:38.170 ,0,1,0.,12.0,4.,12.0,0.,12.0,0.,12.0
1979-03-02 09:28:50.170 ,0,1,0.,12.0,3.,12.0,0.,12.0,0.,12.0
1979-03-02 09:29:02.170 ,1,1,0.,12.0,1.,12.0,0.,12.0,0.,12.0
1979-03-02 09:29:14.170 ,1,1,0.,12.0,2.,12.0,0.,12.0,0.,12.0
1979-03-02 09:29:26.170 ,2,1,0.,12.0,0.,12.0,0.,12.0,0.,12.0
1979-03-02 09:29:38.170 ,2,1,0.,12.0,0.,12.0,0.,12.0,0.,12.0
1979-03-02 09:29:50.170 ,3,1,0.,12.0,1.,12.0,0.,12.0,0.,12.0
1979-03-02 09:30:02.170 ,3,1,0.,12.0,2.,12.0,0.,12.0,0.,12.0
1979-03-02 09:30:14.170 ,4,1,0.,12.0,2.,12.0,0.,12.0,0.,12.0
1979-03-02 09:30:26.170 ,4,1,0.,12.0,5.,12.0,0.,12.0,0.,12.0
1979-03-02 09:30:38.170 ,5,1,0.,12.0,5.,12.0,0.,12.0,0.,12.0
1979-03-02 09:30:50.170 ,5,1,0.,12.0,1.,12.0,0.,12.0,0.,12.0
1979-03-02 09:31:02.170 ,6,1,0.,12.0,2.,12.0,0.,12.0,0.,12.0
1979-03-02 09:31:14.170 ,6,1,0.,12.0,2.,12.0,0.,12.0,0.,12.0
1979-03-02 09:31:26.170 ,7,1,0.,12.0,2.,12.0,0.,12.0,0.,12.0
1979-03-02 09:31:38.170 ,7,1,0.,12.0,10.,12.0,0.,12.0,0.,12.0
1979-03-02 09:31:50.170 ,7,1,0.,12.0,14.,12.0,0.,12.0,0.,12.0
1979-03-02 09:32:02.170 ,7,1,0.,12.0,22.,12.0,0.,12.0,0.,12.0
1979-03-02 09:32:14.170 ,6,1,0.,12.0,22.,12.0,0.,12.0,0.,12.0
1979-03-02 09:32:26.170 ,6,1,0.,12.0,7.,12.0,0.,12.0,0.,12.0
1979-03-02 09:32:38.170 ,5,1,0.,12.0,4.,12.0,0.,12.0,0.,12.0
1979-03-02 09:32:50.170 ,5,1,0.,12.0,2.,12.0,0.,12.0,0.,12.0
1979-03-02 09:33:02.170 ,4,1,0.,12.0,4.,12.0,0.,12.0,0.,12.0
1979-03-02 09:33:14.170 ,4,1,0.,12.0,2.,12.0,0.,12.0,0.,12.0
1979-03-02 09:33:26.170 ,3,1,0.,12.0,3.,12.0,0.,12.0,0.,12.0
1979-03-02 09:33:38.170 ,3,1,0.,12.0,2.,12.0,0.,12.0,0.,12.0
1979-03-02 09:33:50.170 ,2,1,1.,12.0,2.,12.0,0.,12.0,0.,12.0
1979-03-02 09:34:02.170 ,2,1,0.,12.0,1.,12.0,0.,12.0,0.,12.0
1979-03-02 09:34:14.170 ,1,1,0.,12.0,0.,12.0,0.,12.0,0.,12.0
1979-03-02 09:34:26.170 ,1,1,0.,12.0,2.,12.0,0.,12.0,0.,12.0
1979-03-02 09:34:38.170 ,0,1,0.,12.0,1.,12.0,0.,12.0,0.,12.0
1979-03-02 09:34:50.170 ,0,1,1.,12.0,2.,12.0,0.,12.0,0.,12.0
1979-03-02 09:35:02.170 ,0,1,1.,12.0,0.,12.0,0.,12.0,0.,12.0
1979-03-02 09:35:14.170 ,0,1,0.,12.0,5.,12.0,0.,12.0,0.,12.0
1979-03-02 09:35:26.170 ,1,1,1.,12.0,2.,12.0,0.,12.0,0.,12.0
1979-03-02 09:35:38.170 ,1,1,0.,12.0,5.,12.0,0.,12.0,0.,12.0
1979-03-02 09:35:50.170 ,2,1,0.,12.0,1.,12.0,0.,12.0,0.,12.0
1979-03-02 09:36:02.170 ,2,1,0.,12.0,1.,12.0,0.,12.0,0.,12.0
1979-03-02 09:36:14.170 ,3,1,0.,12.0,3.,12.0,0.,12.0,0.,12.0
1979-03-02 09:36:26.170 ,3,1,0.,12.0,3.,12.0,0.,12.0,0.,12.0
1979-03-02 09:36:38.170 ,4,1,0.,12.0,1.,12.0,0.,12.0,0.,12.0
1979-03-02 09:36:50.170 ,4,1,0.,12.0,1.,12.0,0.,12.0,0.,12.0
1979-03-02 09:37:02.170 ,5,1,0.,12.0,3.,12.0,0.,12.0,0.,12.0
1979-03-02 09:37:14.170 ,5,1,0.,12.0,3.,12.0,0.,12.0,0.,12.0
1979-03-02 09:37:26.170 ,6,1,0.,12.0,1.,12.0,0.,12.0,0.,12.0
1979-03-02 09:37:38.170 ,6,1,0.,12.0,2.,12.0,0.,12.0,0.,12.0
1979-03-02 09:37:50.170 ,7,1,0.,12.0,2.,12.0,0.,12.0,0.,12.0
1979-03-02 09:38:02.170 ,7,1,0.,12.0,13.,12.0,0.,12.0,0.,12.0
1979-03-02 09:38:14.170 ,7,1,0.,12.0,12.,12.0,0.,12.0,0.,12.0
1979-03-02 09:38:26.170 ,7,1,0.,12.0,21.,12.0,0.,12.0,0.,12.0
1979-03-02 09:38:38.170 ,6,1,0.,12.0,14.,12.0,0.,12.0,0.,12.0
1979-03-02 09:38:50.170 ,6,1,0.,12.0,5.,12.0,0.,12.0,0.,12.0
1979-03-02 09:39:02.170 ,5,1,0.,12.0,0.,12.0,0.,12.0,0.,12.0
1979-03-02 09:39:14.170 ,5,1,0.,12.0,2.,12.0,0.,12.0,0.,12.0
1979-03-02 09:39:26.170 ,4,1,0.,12.0,2.,12.0,0.,12.0,0.,12.0
1979-03-02 09:39:38.170 ,4,1,0.,12.0,1.,12.0,0.,12.0,0.,12.0
1979-03-02 09:39:50.170 ,3,1,1.,12.0,3.,12.0,0.,12.0,0.,12.0
1979-03-02 09:40:02.170 ,3,1,0.,12.0,2.,12.0,0.,12.0,0.,12.0
1979-03-02 09:40:14.170 ,2,1,0.,12.0,2.,12.0,0.,12.0,0.,12.0
1979-03-02 09:40:26.170 ,2,1,0.,12.0,1.,12.0,0.,12.0,0.,12.0
1979-03-02 09:40:38.170 ,1,1,0.,12.0,0.,12.0,0.,12.0,0.,12.0
1979-03-02 09:40:50.170 ,1,1,0.,12.0,1.,12.0,0.,12.0,0.,12.0
1979-03-02 09:41:02.170 ,0,1,0.,12.0,0.,12.0,0.,12.0,0.,12.0
1979-03-02 09:41:14.170 ,0,1,0.,12.0,2.,12.0,0.,12.0,0.,12.0
1979-03-02 09:41:26.170 ,0,1,0.,12.0,0.,12.0,0.,12.0,0.,12.0
1979-03-02 09:41:38.170 ,0,1,0.,12.0,3.,12.0,0.,12.0,0.,12.0
1979-03-02 09:41:50.170 ,1,1,1.,12.0,0.,12.0,0.,12.0,0.,12.0
1979-03-02 09:42:02.170 ,1,1,0.,12.0,0.,12.0,0.,12.0,0.,12.0
1979-03-02 09:42:14.170 ,2,1,0.,12.0,1.,12.0,0.,12.0,0.,12.0
1979-03-02 09:42:26.170 ,2,1,0.,12.0,1.,12.0,0.,12.0,0.,12.0
1979-03-02 09:42:38.170 ,3,1,0.,12.0,0.,12.0,0.,12.0,0.,12.0
1979-03-02 09:42:50.170 ,3,1,0.,12.0,1.,12.0,0.,12.0,0.,12.0
1979-03-02 09:43:02.170 ,4,1,0.,12.0,1.,12.0,0.,12.0,0.,12.0
1979-03-02 09:43:14.170 ,4,1,0.,12.0,0.,12.0,0.,12.0,0.,12.0
1979-03-02 09:43:26.170 ,5,1,0.,12.0,3.,12.0,0.,12.0,0.,12.0
1979-03-02 09:43:38.170 ,5,1,0.,12.0,2.,12.0,0.,12.0,0.,12.0
1979-03-02 09:43:50.170 ,6,1,0.,12.0,1.,12.0,0.,12.0,0.,12.0
1979-03-02 09:44:02.170 ,6,1,0.,12.0,1.,12.0,0.,12.0,0.,12.0
1979-03-02 09:44:14.170 ,7,1,0.,12.0,0.,12.0,0.,12.0,0.,12.0
1979-03-02 09:44:26.170 ,7,1,0.,12.0,24.,12.0,0.,12.0,0.,12.0
1979-03-02 09:44:38.170 ,7,1,0.,12.0,19.,12.0,0.,12.0,0.,12.0
1979-03-02 09:44:50.170 ,7,1,0.,12.0,22.,12.0,0.,12.0,0.,12.0
1979-03-02 09:45:02.170 ,6,1,0.,12.0,17.,12.0,0.,12.0,0.,12.0
1979-03-02 09:45:14.170 ,6,1,0.,12.0,6.,12.0,0.,12.0,0.,12.0
1979-03-02 09:45:26.170 ,5,1,0.,12.0,2.,12.0,0.,12.0,0.,12.0
1979-03-02 09:45:38.170 ,5,1,0.,12.0,3.,12.0,0.,12.0,0.,12.0
1979-03-02 09:45:50.170 ,4,1,0.,12.0,1.,12.0,0.,12.0,0.,12.0
1979-03-02 09:46:02.170 ,4,1,0.,12.0,1.,12.0,0.,12.0,0.,12.0
1979-03-02 09:46:14.170 ,3,1,0.,12.0,0.,12.0,0.,12.0,0.,12.0
1979-03-02 09:46:26.170 ,3,1,0.,12.0,0.,12.0,0.,12.0,0.,12.0
1979-03-02 09:46:38.170 ,2,1,0.,12.0,1.,12.0,0.,12.0,0.,12.0
1979-03-02 09:46:50.170 ,2,1,0.,12.0,1.,12.0,0.,12.0,0.,12.0
1979-03-02 09:47:02.170 ,1,1,0.,12.0,1.,12.0,0.,12.0,0.,12.0
1979-03-02 09:47:14.170 ,1,1,0.,12.0,0.,12.0,0.,12.0,0.,12.0
1979-03-02 09:47:26.170 ,0,1,0.,12.0,1.,12.0,0.,12.0,0.,12.0
1979-03-02 09:47:38.170 ,0,1,0.,12.0,1.,12.0,0.,12.0,0.,12.0
1979-03-02 09:47:50.170 ,0,1,0.,12.0,4.,12.0,0.,12.0,0.,12.0
1979-03-02 09:48:02.170 ,0,1,0.,12.0,1.,12.0,0.,12.0,0.,12.0
1979-03-02 09:48:14.170 ,1,1,0.,12.0,0.,12.0,0.,12.0,0.,12.0
1979-03-02 09:48:26.170 ,1,1,0.,12.0,3.,12.0,0.,12.0,0.,12.0
1979-03-02 09:48:38.170 ,2,1,0.,12.0,1.,12.0,0.,12.0,0.,12.0
1979-03-02 09:48:50.170 ,2,1,0.,12.0,6.,12.0,0.,12.0,0.,12.0
1979-03-02 09:49:02.170 ,3,1,0.,12.0,0.,12.0,0.,12.0,0.,12.0
1979-03-02 09:49:14.170 ,3,1,0.,12.0,0.,12.0,0.,12.0,0.,12.0
1979-03-02 09:49:26.170 ,4,1,0.,12.0,0.,12.0,0.,12.0,0.,12.0
1979-03-02 09:49:38.170 ,4,1,0.,12.0,0.,12.0,0.,12.0,0.,12.0
1979-03-02 09:49:50.170 ,5,1,0.,12.0,1.,12.0,0.,12.0,0.,12.0
1979-03-02 09:50:02.170 ,5,1,0.,12.0,0.,12.0,0.,12.0,0.,12.0
1979-03-02 09:50:14.170 ,6,1,0.,12.0,0.,12.0,0.,12.0,0.,12.0
1979-03-02 09:50:26.170 ,6,1,0.,12.0,0.,12.0,0.,12.0,0.,12.0
1979-03-02 09:50:38.170 ,7,1,0.,12.0,0.,12.0,0.,12.0,0.,12.0
1979-03-02 09:50:50.170 ,7,1,0.,12.0,16.,12.0,0.,12.0,0.,12.0
1979-03-02 09:51:02.170 ,7,1,0.,12.0,20.,12.0,0.,12.0,0.,12.0
1979-03-02 09:51:14.170 ,7,1,0.,12.0,19.,12.0,0.,12.0,0.,12.0
1979-03-02 09:51:26.170 ,6,1,0.,12.0,22.,12.0,0.,12.0,0.,12.0
1979-03-02 09:51:38.170 ,6,1,0.,12.0,8.,12.0,0.,12.0,0.,12.0
1979-03-02 09:51:50.170 ,5,1,0.,12.0,1.,12.0,0.,12.0,0.,12.0
1979-03-02 09:52:02.170 ,5,1,0.,12.0,0.,12.0,0.,12.0,0.,12.0
1979-03-02 09:52:14.170 ,4,1,0.,12.0,1.,12.0,0.,12.0,0.,12.0
1979-03-02 09:52:26.170 ,4,1,0.,12.0,2.,12.0,0.,12.0,0.,12.0
1979-03-02 09:52:38.170 ,3,1,0.,12.0,2.,12.0,0.,12.0,0.,12.0
1979-03-02 09:52:50.170 ,3,1,0.,12.0,2.,12.0,0.,12.0,0.,12.0
1979-03-02 09:53:02.170 ,2,1,0.,12.0,1.,12.0,0.,12.0,0.,12.0
1979-03-02 09:53:14.170 ,2,1,0.,12.0,0.,12.0,0.,12.0,0.,12.0
1979-03-02 09:53:26.170 ,1,1,0.,12.0,1.,12.0,0.,12.0,0.,12.0
1979-03-02 09:53:38.170 ,1,1,0.,12.0,1.,12.0,0.,12.0,0.,12.0
1979-03-02 09:53:50.170 ,0,1,0.,12.0,1.,12.0,0.,12.0,0.,12.0
1979-03-02 09:54:02.170 ,0,1,0.,12.0,2.,12.0,0.,12.0,0.,12.0
1979-03-02 09:54:14.170 ,0,1,0.,12.0,0.,12.0,0.,12.0,0.,12.0
1979-03-02 09:54:26.170 ,0,1,0.,12.0,1.,12.0,0.,12.0,0.,12.0
1979-03-02 09:54:38.170 ,1,1,0.,12.0,3.,12.0,0.,12.0,0.,12.0
1979-03-02 09:54:50.170 ,1,1,0.,12.0,0.,12.0,0.,12.0,0.,12.0
1979-03-02 09:55:02.170 ,2,1,0.,12.0,0.,12.0,0.,12.0,0.,12.0
1979-03-02 09:55:14.170 ,2,1,0.,12.0,2.,12.0,0.,12.0,0.,12.0
1979-03-02 09:55:26.170 ,3,1,0.,12.0,3.,12.0,0.,12.0,0.,12.0
1979-03-02 09:55:38.170 ,3,1,0.,12.0,1.,12.0,0.,12.0,0.,12.0
1979-03-02 09:55:50.170 ,4,1,0.,12.0,0.,12.0,0.,12.0,0.,12.0
1979-03-02 09:56:02.170 ,4,1,0.,12.0,0.,12.0,0.,12.0,0.,12.0
1979-03-02 09:56:14.170 ,5,1,0.,12.0,1.,12.0,0.,12.0,0.,12.0
1979-03-02 09:56:26.170 ,5,1,0.,12.0,4.,12.0,0.,12.0,0.,12.0
1979-03-02 09:56:38.170 ,6,1,0.,12.0,6.,12.0,0.,12.0,0.,12.0
1979-03-02 09:56:50.170 ,6,1,0.,12.0,4.,12.0,0.,12.0,0.,12.0
1979-03-02 09:57:02.170 ,7,1,0.,12.0,8.,12.0,0.,12.0,0.,12.0
1979-03-02 09:57:14.170 ,7,1,0.,12.0,13.,12.0,0.,12.0,0.,12.0
1979-03-02 09:57:26.170 ,7,1,0.,12.0,14.,12.0,0.,12.0,0.,12.0
1979-03-02 09:57:38.170 ,7,1,0.,12.0,19.,12.0,0.,12.0,0.,12.0
1979-03-02 09:57:50.170 ,6,1,0.,12.0,19.,12.0,0.,12.0,0.,12.0
1979-03-02 09:58:02.170 ,6,1,0.,12.0,6.,12.0,0.,12.0,0.,12.0
1979-03-02 09:58:14.170 ,5,1,0.,12.0,5.,12.0,0.,12.0,0.,12.0
1979-03-02 09:58:26.170 ,5,1,0.,12.0,4.,12.0,0.,12.0,0.,12.0
1979-03-02 09:58:38.170 ,4,1,0.,12.0,6.,12.0,0.,12.0,0.,12.0
1979-03-02 09:58:50.170 ,4,1,0.,12.0,1.,12.0,0.,12.0,0.,12.0
1979-03-02 09:59:02.170 ,3,1,0.,12.0,1.,12.0,0.,12.0,0.,12.0
1979-03-02 09:59:14.170 ,3,1,0.,12.0,0.,12.0,0.,12.0,0.,12.0
1979-03-02 09:59:26.170 ,2,1,0.,12.0,2.,12.0,0.,12.0,0.,12.0
1979-03-02 09:59:38.170 ,2,1,0.,12.0,0.,12.0,0.,12.0,1.,12.0
1979-03-02 09:59:50.170 ,1,1,0.,12.0,2.,12.0,0.,12.0,0.,12.0
1979-03-02 10:00:02.170 ,1,1,0.,12.0,1.,12.0,0.,12.0,0.,12.0
1979-03-02 10:00:14.170 ,0,1,0.,12.0,3.,12.0,0.,12.0,0.,12.0
1979-03-02 10:00:26.170 ,0,1,0.,12.0,0.,12.0,0.,12.0,0.,12.0
1979-03-02 10:00:38.170 ,0,1,0.,12.0,2.,12.0,0.,12.0,0.,12.0
1979-03-02 10:00:50.170 ,0,1,0.,12.0,3.,12.0,0.,12.0,0.,12.0
1979-03-02 10:01:02.170 ,1,1,0.,12.0,1.,12.0,0.,12.0,0.,12.0
1979-03-02 10:01:14.170 ,1,1,0.,12.0,2.,12.0,0.,12.0,0.,12.0
1979-03-02 10:01:26.170 ,2,1,0.,12.0,0.,12.0,0.,12.0,0.,12.0
1979-03-02 10:01:38.170 ,2,1,0.,12.0,1.,12.0,0.,12.0,0.,12.0
1979-03-02 10:01:50.170 ,3,1,0.,12.0,0.,12.0,0.,12.0,0.,12.0
1979-03-02 10:02:02.170 ,3,1,0.,12.0,0.,12.0,0.,12.0,0.,12.0
1979-03-02 10:02:14.170 ,4,1,0.,12.0,1.,12.0,0.,12.0,0.,12.0
1979-03-02 10:02:26.170 ,4,1,0.,12.0,4.,12.0,0.,12.0,0.,12.0
1979-03-02 10:02:38.170 ,5,1,0.,12.0,5.,12.0,0.,12.0,0.,12.0
1979-03-02 10:02:50.170 ,5,1,0.,12.0,3.,12.0,0.,12.0,0.,12.0
1979-03-02 10:03:02.170 ,6,1,0.,12.0,4.,12.0,0.,12.0,0.,12.0
1979-03-02 10:03:14.170 ,6,1,0.,12.0,3.,12.0,0.,12.0,0.,12.0
1979-03-02 10:03:26.170 ,7,1,0.,12.0,2.,12.0,0.,12.0,0.,12.0
1979-03-02 10:03:38.170 ,7,1,0.,12.0,21.,12.0,0.,12.0,0.,12.0
1979-03-02 10:03:50.170 ,7,1,0.,12.0,23.,12.0,0.,12.0,0.,12.0
1979-03-02 10:04:02.170 ,7,1,0.,12.0,12.,12.0,0.,12.0,0.,12.0
1979-03-02 10:04:14.170 ,6,1,0.,12.0,14.,12.0,0.,12.0,0.,12.0
1979-03-02 10:04:26.170 ,6,1,0.,12.0,7.,12.0,0.,12.0,0.,12.0
1979-03-02 10:04:38.170 ,5,1,0.,12.0,3.,12.0,0.,12.0,0.,12.0
1979-03-02 10:04:50.170 ,5,1,0.,12.0,5.,12.0,0.,12.0,0.,12.0
1979-03-02 10:05:02.170 ,4,1,0.,12.0,3.,12.0,0.,12.0,0.,12.0
1979-03-02 10:05:14.170 ,4,1,0.,12.0,1.,12.0,0.,12.0,0.,12.0
1979-03-02 10:05:26.170 ,3,1,0.,12.0,2.,12.0,0.,12.0,0.,12.0
1979-03-02 10:05:38.170 ,3,1,0.,12.0,3.,12.0,0.,12.0,0.,12.0
1979-03-02 10:05:50.170 ,2,1,0.,12.0,4.,12.0,0.,12.0,0.,12.0
1979-03-02 10:06:02.170 ,2,1,0.,12.0,0.,12.0,0.,12.0,0.,12.0
1979-03-02 10:06:14.170 ,1,1,0.,12.0,1.,12.0,0.,12.0,0.,12.0
1979-03-02 10:06:26.170 ,1,1,0.,12.0,0.,12.0,0.,12.0,0.,12.0
1979-03-02 10:06:38.170 ,0,1,0.,12.0,0.,12.0,0.,12.0,0.,12.0
1979-03-02 10:06:50.170 ,0,1,0.,12.0,2.,12.0,0.,12.0,0.,12.0
1979-03-02 10:07:02.170 ,0,1,0.,12.0,2.,12.0,0.,12.0,0.,12.0
1979-03-02 10:07:14.170 ,0,1,0.,12.0,0.,12.0,0.,12.0,0.,12.0
1979-03-02 10:07:26.170 ,1,1,0.,12.0,1.,12.0,0.,12.0,0.,12.0
1979-03-02 10:07:38.170 ,1,1,0.,12.0,1.,12.0,0.,12.0,0.,12.0
1979-03-02 10:07:50.170 ,2,1,0.,12.0,1.,12.0,0.,12.0,0.,12.0
1979-03-02 10:08:02.170 ,2,1,0.,12.0,2.,12.0,0.,12.0,0.,12.0
1979-03-02 10:08:14.170 ,3,1,0.,12.0,1.,12.0,0.,12.0,0.,12.0
1979-03-02 10:08:26.170 ,3,1,0.,12.0,2.,12.0,0.,12.0,0.,12.0
1979-03-02 10:08:38.170 ,4,1,0.,12.0,0.,12.0,0.,12.0,0.,12.0
1979-03-02 10:08:50.170 ,4,1,0.,12.0,0.,12.0,0.,12.0,0.,12.0
1979-03-02 10:09:02.170 ,5,1,0.,12.0,3.,12.0,0.,12.0,0.,12.0
1979-03-02 10:09:14.170 ,5,1,0.,12.0,2.,12.0,0.,12.0,0.,12.0
1979-03-02 10:09:26.170 ,6,1,0.,12.0,1.,12.0,0.,12.0,0.,12.0
1979-03-02 10:09:38.170 ,6,1,0.,12.0,4.,12.0,0.,12.0,0.,12.0
1979-03-02 10:09:50.170 ,7,1,0.,12.0,5.,12.0,0.,12.0,0.,12.0
1979-03-02 10:10:02.170 ,7,1,1.,12.0,11.,12.0,0.,12.0,0.,12.0
1979-03-02 10:10:14.170 ,7,1,0.,12.0,16.,12.0,0.,12.0,0.,12.0
1979-03-02 10:10:26.170 ,7,1,0.,12.0,24.,12.0,0.,12.0,0.,12.0
1979-03-02 10:10:38.170 ,6,1,0.,12.0,14.,12.0,0.,12.0,0.,12.0
1979-03-02 10:10:50.170 ,6,1,0.,12.0,9.,12.0,0.,12.0,0.,12.0
1979-03-02 10:11:02.170 ,5,1,0.,12.0,5.,12.0,0.,12.0,0.,12.0
1979-03-02 10:11:14.170 ,5,1,0.,12.0,2.,12.0,0.,12.0,0.,12.0
1979-03-02 10:11:26.170 ,4,1,0.,12.0,4.,12.0,0.,12.0,0.,12.0
1979-03-02 10:11:38.170 ,4,1,0.,12.0,3.,12.0,0.,12.0,0.,12.0
1979-03-02 10:11:50.170 ,3,1,0.,12.0,1.,12.0,0.,12.0,0.,12.0
1979-03-02 10:12:02.170 ,3,1,0.,12.0,0.,12.0,0.,12.0,0.,12.0
1979-03-02 10:12:14.170 ,2,1,0.,12.0,1.,12.0,0.,12.0,0.,12.0
1979-03-02 10:12:26.170 ,2,1,0.,12.0,0.,12.0,0.,12.0,0.,12.0
1979-03-02 10:12:38.170 ,1,1,0.,12.0,0.,12.0,0.,12.0,0.,12.0
1979-03-02 10:12:50.170 ,1,1,0.,12.0,1.,12.0,0.,12.0,0.,12.0
1979-03-02 10:13:02.170 ,0,1,0.,12.0,2.,12.0,0.,12.0,0.,12.0
1979-03-02 10:13:14.170 ,0,1,0.,12.0,2.,12.0,0.,12.0,0.,12.0
1979-03-02 10:13:26.170 ,0,1,0.,12.0,0.,12.0,0.,12.0,0.,12.0
1979-03-02 10:13:38.170 ,0,1,0.,12.0,2.,12.0,0.,12.0,0.,12.0
1979-03-02 10:13:50.170 ,1,1,0.,12.0,1.,12.0,0.,12.0,0.,12.0
1979-03-02 10:14:02.170 ,1,1,0.,12.0,1.,12.0,0.,12.0,0.,12.0
1979-03-02 10:14:14.170 ,2,1,0.,12.0,1.,12.0,0.,12.0,0.,12.0
1979-03-02 10:14:26.170 ,2,1,0.,12.0,0.,12.0,0.,12.0,0.,12.0
1979-03-02 10:14:38.170 ,3,1,0.,12.0,1.,12.0,0.,12.0,0.,12.0
1979-03-02 10:14:50.170 ,3,1,0.,12.0,1.,12.0,0.,12.0,0.,12.0
1979-03-02 10:15:02.170 ,4,1,0.,12.0,2.,12.0,0.,12.0,0.,12.0
1979-03-02 10:15:14.170 ,4,1,0.,12.0,0.,12.0,0.,12.0,0.,12.0
1979-03-02 10:15:26.170 ,5,1,0.,12.0,1.,12.0,0.,12.0,0.,12.0
1979-03-02 10:15:38.170 ,5,1,0.,12.0,2.,12.0,0.,12.0,0.,12.0
1979-03-02 10:15:50.170 ,6,1,0.,12.0,4.,12.0,0.,12.0,0.,12.0
1979-03-02 10:16:02.170 ,6,1,0.,12.0,2.,12.0,0.,12.0,0.,12.0
1979-03-02 10:16:14.170 ,7,1,0.,12.0,2.,12.0,0.,12.0,0.,12.0
1979-03-02 10:16:26.170 ,7,1,0.,12.0,11.,12.0,0.,12.0,0.,12.0
1979-03-02 10:16:38.170 ,7,1,0.,12.0,10.,12.0,0.,12.0,0.,12.0
1979-03-02 10:16:50.170 ,7,1,0.,12.0,15.,12.0,0.,12.0,0.,12.0
1979-03-02 10:17:02.170 ,6,1,0.,12.0,18.,12.0,0.,12.0,0.,12.0